CW6421 Weather Reports


time (UTC)temp
C
wind
direction
speed
KPH
gust
KPH
rain 1hr
cm
rain 24hr
cm
rain mn
cm
humidity
%
barometer
mb
20260505140528 22 87 9.7 14.5 0.00 0.03 0.00 63 1008.7
20260505124530 20 160 4.8 12.9 0.00 0.03 0.00 69 1009.1
20260505123528 20 154 9.7 11.3 0.00 0.03 0.00 70 1009.1
20260505122527 19 147 8.0 11.3 0.00 0.03 0.00 71 1009.1
20260505121530 19 163 3.2 12.9 0.00 0.03 0.00 71 1009.1
20260505120528 19 157 6.4 9.7 0.00 0.03 0.00 71 1009.4
20260505115528 19 164 6.4 9.7 0.00 0.03 0.00 71 1009.4
20260505114529 18 156 3.2 8.0 0.00 0.03 0.00 72 1009.4
20260505113526 18 143 4.8 9.7 0.00 0.03 0.00 73 1009.4
20260505112527 18 140 4.8 9.7 0.00 0.03 0.00 73 1009.4
20260505111529 18 145 3.2 9.7 0.00 0.03 0.00 73 1009.4
20260505110529 18 150 3.2 12.9 0.00 0.03 0.00 74 1009.6
20260505101528 17 94 0.0 11.3 0.00 0.03 0.00 77 1009.6
20260505100528 17 48 1.6 12.9 0.00 0.03 0.00 77 1009.7
20260505095527 17 49 0.0 12.9 0.00 0.03 0.00 78 1009.7
20260505093528 16 97 1.6 12.9 0.00 0.03 0.00 78 1009.7
20260505092527 16 96 3.2 11.3 0.00 0.03 0.00 78 1009.7
20260505091531 16 35 3.2 11.3 0.00 0.03 0.00 78 1009.7
20260505090527 16 21 6.4 16.1 0.00 0.03 0.00 78 1010.0
20260505085527 16 40 4.8 16.1 0.00 0.03 0.00 78 1010.0
20260505084530 16 67 6.4 16.1 0.00 0.03 0.00 78 1010.0
20260505082527 16 55 8.0 17.7 0.00 0.03 0.00 78 1010.0
20260505081529 16 54 9.7 17.7 0.00 0.03 0.00 78 1010.0
20260505080528 15 57 9.7 19.3 0.00 0.03 0.00 78 1009.9
20260505074530 15 60 8.0 19.3 0.00 0.03 0.00 78 1009.9
20260505073526 15 73 11.3 19.3 0.00 0.03 0.00 77 1009.9
20260505071530 15 54 14.5 17.7 0.03 0.03 0.00 78 1009.9
20260505070527 15 68 14.5 16.1 0.03 0.03 0.00 78 1010.2
20260505065527 15 59 12.9 16.1 0.03 0.03 0.00 78 1010.2
20260505064530 15 47 12.9 14.5 0.03 0.03 0.00 78 1010.2
20260505063527 15 52 12.9 14.5 0.00 0.00 0.00 78 1010.2
20260505062527 15 55 11.3 16.1 0.00 0.00 0.00 78 1010.2
20260505061529 15 31 9.7 17.7 0.00 0.00 0.00 78 1010.2
20260505055527 14 30 11.3 16.1 0.00 0.00 0.00 78 1010.3
20260505054530 14 40 12.9 16.1 0.00 0.00 0.00 78 1010.3
20260505053527 14 21 9.7 17.7 0.00 0.00 0.00 78 1010.3
20260505051530 14 28 9.7 17.7 0.00 0.00 0.00 78 1010.3
20260505050528 14 25 8.0 11.3 0.00 0.00 0.00 78 1010.4
20260505041529 14 9 9.7 11.3 0.00 0.00 0.00 77 1010.4
20260505040527 15 5 9.7 11.3 0.00 0.00 0.00 76 1010.7
20260505035527 15 359 8.0 11.3 0.00 0.00 0.00 75 1010.7
20260505034529 15 4 6.4 11.3 0.00 0.00 0.00 75 1010.7
20260505033526 15 9 6.4 11.3 0.00 0.00 0.00 75 1010.7
20260505032528 15 13 4.8 14.5 0.00 0.00 0.00 74 1010.7
20260505031529 15 332 4.8 12.9 0.00 0.00 0.00 74 1010.7
20260505030527 15 95 4.8 14.5 0.00 0.00 0.00 74 1010.8
20260505025527 15 87 1.6 14.5 0.00 0.00 0.00 74 1010.8
20260505024529 15 86 6.4 14.5 0.00 0.00 0.00 74 1010.8
20260505023527 15 90 6.4 16.1 0.00 0.00 0.00 74 1010.8
20260505021527 15 86 9.7 14.5 0.00 0.00 0.00 74 1010.8
20260505020526 15 90 8.0 14.5 0.00 0.00 0.00 74 1011.1
20260505015527 15 83 9.7 16.1 0.00 0.00 0.00 74 1011.1
20260505014528 15 76 11.3 12.9 0.00 0.00 0.00 74 1011.1
20260505013527 15 69 9.7 16.1 0.00 0.00 0.00 74 1011.1
20260505012526 15 69 11.3 12.9 0.00 0.00 0.00 74 1011.1
20260505011529 15 67 9.7 16.1 0.00 0.00 0.00 73 1011.1
20260505005527 15 68 12.9 14.5 0.00 0.00 0.00 73 1011.8
20260505004529 15 54 9.7 12.9 0.00 0.00 0.00 73 1011.8
20260505003526 15 61 12.9 14.5 0.00 0.00 0.00 73 1011.8
20260505002527 15 93 9.7 14.5 0.00 0.00 0.00 73 1011.8
20260505001528 15 93 8.0 12.9 0.00 0.00 0.00 73 1011.8
20260505000527 15 81 9.7 19.3 0.00 0.00 0.00 72 1012.0
20260504235526 15 82 8.0 17.7 0.00 0.00 0.00 72 1012.0
20260504234535 15 80 8.0 16.1 0.00 0.00 0.00 72 1012.0
20260504233530 15 60 4.8 16.1 0.00 0.00 0.00 72 1012.0
20260504232526 16 64 8.0 19.3 0.00 0.00 0.00 71 1012.0
20260504231528 16 60 9.7 16.1 0.00 0.00 0.00 71 1012.0
20260504230528 16 62 9.7 19.3 0.00 0.00 0.00 70 1012.1
20260504225527 16 56 8.0 16.1 0.00 0.00 0.00 70 1012.1
20260504223529 16 54 11.3 19.3 0.00 0.00 0.00 70 1012.1
20260504222526 16 59 11.3 19.3 0.00 0.00 0.00 69 1012.1
20260504221530 16 55 12.9 16.1 0.00 0.00 0.00 69 1012.1
20260504220528 17 51 14.5 17.7 0.00 0.00 0.00 68 1012.3
20260504215527 17 41 14.5 17.7 0.00 0.00 0.00 68 1012.3
20260504214529 17 27 11.3 12.9 0.00 0.00 0.00 67 1012.3
20260504213527 17 38 11.3 14.5 0.00 0.00 0.00 67 1012.3
20260504212525 17 21 9.7 12.9 0.00 0.00 0.00 66 1012.3
20260504210527 17 34 4.8 11.3 0.00 0.00 0.00 65 1012.1
20260504205526 18 31 4.8 12.9 0.00 0.00 0.00 64 1012.1
20260504204532 18 32 8.0 12.9 0.00 0.00 0.00 64 1012.1
20260504203527 18 25 6.4 12.9 0.00 0.00 0.00 63 1012.1
20260504201528 18 45 6.4 12.9 0.00 0.00 0.00 63 1012.1
20260504195527 18 46 6.4 14.5 0.00 0.00 0.00 62 1011.9
20260504193528 18 21 8.0 14.5 0.00 0.00 0.00 61 1011.9
20260504191529 19 4 11.3 12.9 0.00 0.00 0.00 60 1011.9
20260504190528 19 8 12.9 16.1 0.00 0.00 0.00 60 1011.6
20260504185527 20 8 9.7 12.9 0.00 0.00 0.00 59 1011.6
20260504183527 20 340 11.3 14.5 0.00 0.00 0.00 59 1011.6
20260504182527 20 341 9.7 12.9 0.00 0.00 0.00 59 1011.6
20260504181529 20 302 11.3 11.3 0.00 0.00 0.00 58 1011.6
20260504180528 21 304 8.0 16.1 0.00 0.00 0.00 57 1011.4
20260504175526 21 313 9.7 12.9 0.00 0.00 0.00 56 1011.4
20260504174530 21 318 6.4 16.1 0.00 0.00 0.00 55 1011.4
20260504172526 21 300 6.4 16.1 0.00 0.00 0.00 55 1011.4
20260504171529 21 253 6.4 14.5 0.00 0.00 0.00 54 1011.4
20260504150528 23 300 11.3 22.5 0.00 0.00 0.00 51 1012.1